EW5474 Weather Reports


Display with metric or nautical units.
time (UTC)temp
F
wind
direction
speed
MPH
gust
MPH
rain 1hr
in
rain 24hr
in
rain mn
in
humidity
%
barometer
mb
20260906183333 81 100 3.0 9.0 0.00 0.20 0.00 58 1013.3
20260906182828 81 103 3.0 8.0 0.00 0.21 0.00 60 1013.3
20260906182322 80 44 3.0 8.0 0.00 0.21 0.00 59 1013.3
20260906182047 82 22 3.0 9.0 0.00 0.21 0.00 58 1013.3
20260906181310 82 91 4.0 14.0 0.00 0.21 0.00 58 1013.2
20260906180804 82 349 4.0 14.0 0.00 0.21 0.00 58 1013.2
20260906180258 82 5 4.0 10.0 0.00 0.21 0.00 57 1013.1
20260906180023 82 42 4.0 10.0 0.00 0.21 0.00 56 1013.3
20260906175246 82 42 3.0 10.0 0.00 0.21 0.00 58 1013.4
20260906174740 82 19 3.0 9.0 0.00 0.21 0.00 54 1013.3
20260906174234 83 185 3.0 9.0 0.00 0.21 0.00 56 1013.2
20260906173737 82 20 4.0 9.0 0.00 0.21 0.00 56 1013.3
20260906173222 82 0 3.0 9.0 0.00 0.21 0.00 54 1013.2
20260906172716 82 140 3.0 9.0 0.00 0.21 0.00 54 1013.2
20260906172210 83 41 3.0 9.0 0.00 0.21 0.00 55 1013.4
20260906171707 83 17 3.0 7.0 0.00 0.21 0.00 52 1013.3
20260906171701 83 212 3.0 9.0 0.00 0.21 0.00 52 1013.3
20260906170652 83 284 3.0 10.0 0.00 0.21 0.00 54 1013.3
20260906170146 82 69 4.0 10.0 0.00 0.21 0.00 58 1013.4
20260906165640 83 21 3.0 10.0 0.00 0.21 0.00 54 1013.5
20260906165134 82 330 3.0 10.0 0.00 0.21 0.00 56 1013.3
20260906164628 82 282 4.0 12.0 0.00 0.21 0.00 58 1013.3
20260906164122 82 109 2.0 8.0 0.00 0.21 0.00 55 1013.4
20260906163616 83 278 3.0 10.0 0.00 0.21 0.00 52 1013.4
20260906163341 83 23 3.0 10.0 0.00 0.21 0.00 57 1013.4
20260906162604 83 34 3.0 8.0 0.00 0.21 0.00 56 1013.5
20260906162058 84 336 2.0 7.0 0.00 0.21 0.00 57 1013.4
20260906161552 83 38 2.0 8.0 0.00 0.21 0.00 53 1013.5
20260906161046 83 306 3.0 8.0 0.00 0.21 0.00 54 1013.5
20260906160539 83 332 3.0 8.0 0.00 0.21 0.00 53 1013.4
20260906160034 83 340 4.0 9.0 0.00 0.21 0.00 51 1013.5
20260906155528 82 323 4.0 11.0 0.00 0.21 0.00 55 1013.7
20260906155022 83 331 4.0 11.0 0.00 0.21 0.00 52 1013.8
20260906154516 83 306 3.0 8.0 0.00 0.21 0.00 53 1013.7
20260906154009 83 329 3.0 7.0 0.00 0.21 0.00 54 1013.8
20260906153504 82 44 4.0 10.0 0.00 0.21 0.00 53 1013.8
20260906152958 83 30 3.0 10.0 0.00 0.21 0.00 54 1013.8
20260906152452 83 11 2.0 8.0 0.00 0.21 0.00 54 1013.8
20260906152217 82 156 3.0 9.0 0.00 0.21 0.00 56 1013.7
20260906151711 82 11 3.0 10.0 0.00 0.21 0.00 54 1013.8
20260906150934 82 32 3.0 10.0 0.00 0.21 0.00 57 1013.6
20260906150659 81 279 4.0 10.0 0.00 0.21 0.00 58 1013.6
20260906145922 81 18 4.0 10.0 0.00 0.21 0.00 55 1013.6
20260906145416 82 355 4.0 10.0 0.00 0.21 0.00 58 1013.5
20260906144910 81 60 4.0 8.0 0.00 0.21 0.00 58 1013.5
20260906144404 81 22 4.0 10.0 0.00 0.21 0.00 58 1013.4
20260906143858 81 329 4.0 11.0 0.00 0.21 0.00 58 1013.4
20260906143351 81 51 3.0 11.0 0.00 0.21 0.00 61 1013.4
20260906142846 81 345 4.0 10.0 0.00 0.21 0.00 59 1013.3
20260906142340 81 338 3.0 10.0 0.00 0.21 0.00 58 1013.3
20260906141834 81 176 3.0 10.0 0.00 0.21 0.00 63 1013.1
20260906141328 80 24 3.0 10.0 0.00 0.21 0.00 62 1013.1
20260906140822 80 315 3.0 7.0 0.00 0.21 0.00 64 1013.1
20260906140547 81 312 2.0 7.0 0.00 0.21 0.00 64 1013.0
20260906135809 80 151 2.0 5.0 0.00 0.21 0.00 64 1012.9
20260906135306 80 298 2.0 6.0 0.00 0.21 0.00 62 1012.9
20260906135259 80 27 2.0 7.0 0.00 0.21 0.00 63 1012.9
20260906134252 79 24 2.0 7.0 0.00 0.21 0.00 64 1012.8
20260906134016 78 50 3.0 9.0 0.00 0.21 0.00 67 1012.8
20260906133240 78 9 2.0 9.0 0.00 0.21 0.00 66 1012.8
20260906132733 78 80 2.0 5.0 0.00 0.21 0.00 68 1012.8
20260906132228 78 9 2.0 6.0 0.00 0.21 0.00 70 1012.7
20260906131721 77 52 2.0 7.0 0.00 0.21 0.00 70 1012.6
20260906131216 77 345 3.0 7.0 0.00 0.21 0.00 70 1012.7
20260906130941 76 5 3.0 7.0 0.00 0.21 0.00 73 1012.7
20260906130204 75 355 3.0 8.0 0.00 0.21 0.00 76 1012.6
20260906125701 75 355 2.0 8.0 0.00 0.21 0.00 77 1012.6
20260906125655 75 339 2.0 6.0 0.00 0.21 0.00 79 1012.5
20260906124645 74 67 2.0 6.0 0.00 0.21 0.00 80 1012.5
20260906124140 74 0 1.0 6.0 0.00 0.21 0.00 82 1012.4
20260906123634 74 338 1.0 6.0 0.00 0.21 0.00 83 1012.4
20260906123141 74 355 1.0 3.0 0.00 0.21 0.00 85 1012.5
20260906122622 74 32 0.0 3.0 0.00 0.21 0.00 86 1012.5
20260906122129 74 0 0.0 0.0 0.00 0.21 0.00 86 1012.4
20260906121611 74 0 0.0 0.0 0.00 0.21 0.00 86 1012.4
20260906121336 73 0 0.0 0.0 0.00 0.21 0.00 86 1012.5
20260906120829 73 0 0.0 0.0 0.00 0.21 0.00 86 1012.5
20260906120335 73 0 0.0 0.0 0.00 0.21 0.00 86 1012.4
20260906115546 73 0 0.0 0.0 0.00 0.21 0.00 86 1012.3
20260906115040 73 0 0.0 0.0 0.00 0.21 0.00 85 1012.2
20260906114534 73 0 0.0 0.0 0.00 0.21 0.00 85 1012.3
20260906114027 73 0 0.0 0.0 0.00 0.21 0.00 85 1012.2
20260906113522 73 0 0.0 0.0 0.00 0.21 0.00 85 1012.1
20260906113016 72 0 0.0 0.0 0.00 0.21 0.00 85 1012.1
20260906112741 72 0 0.0 0.0 0.00 0.21 0.00 85 1012.1
20260906112004 72 0 0.0 0.0 0.00 0.21 0.00 85 1011.9
20260906111458 72 0 0.0 0.0 0.00 0.21 0.00 85 1011.8
20260906110952 72 0 0.0 0.0 0.00 0.21 0.00 84 1011.8
20260906110718 72 0 0.0 0.0 0.00 0.21 0.00 84 1011.7
20260906105940 72 0 0.0 0.0 0.00 0.21 0.00 84 1011.7
20260906105434 72 0 0.0 0.0 0.00 0.21 0.00 84 1011.8
20260906104928 72 0 0.0 0.0 0.00 0.21 0.00 84 1011.6
20260906104421 72 0 0.0 0.0 0.00 0.21 0.00 84 1011.7
20260906103916 72 0 0.0 0.0 0.00 0.21 0.00 84 1011.6
20260906103642 72 0 0.0 0.0 0.00 0.21 0.00 84 1011.5
20260906102904 72 0 0.0 0.0 0.00 0.21 0.00 84 1011.4
20260906102358 72 0 0.0 0.0 0.00 0.21 0.00 84 1011.3
20260906101852 72 0 0.0 0.0 0.00 0.21 0.00 84 1011.2
20260906101346 72 0 0.0 0.0 0.00 0.21 0.00 84 1011.2
20260906101124 72 0 0.0 0.0 0.00 0.21 0.00 84 1011.2
20260906100347 72 0 0.0 0.0 0.00 0.21 0.00 85 1011.1
20260906095828 72 0 0.0 0.0 0.00 0.21 0.00 85 1011.1
20260906095554 72 0 0.0 1.0 0.00 0.21 0.00 85 1011.1
20260906094816 72 0 0.0 1.0 0.00 0.21 0.00 85 1011.0
20260906094541 72 29 1.0 2.0 0.00 0.21 0.00 85 1011.0
20260906093804 72 15 1.0 2.0 0.00 0.21 0.00 85 1010.9
20260906093258 72 10 0.0 1.0 0.00 0.21 0.00 85 1011.0
20260906092752 72 345 0.0 0.0 0.00 0.21 0.00 86 1010.9
20260906092246 72 345 0.0 0.0 0.00 0.21 0.00 86 1010.9
20260906091739 72 345 0.0 0.0 0.00 0.21 0.00 86 1010.9
20260906091234 72 345 0.0 0.0 0.00 0.21 0.00 86 1010.9
20260906090728 72 325 0.0 0.0 0.00 0.21 0.00 86 1010.8
20260906090221 72 325 0.0 0.0 0.00 0.21 0.00 86 1010.8
20260906085716 72 325 0.0 0.0 0.00 0.21 0.00 86 1010.7
20260906085210 72 5 0.0 0.0 0.00 0.21 0.00 86 1010.6
20260906084935 72 5 0.0 0.0 0.00 0.21 0.00 86 1010.5
20260906084158 72 341 0.0 0.0 0.00 0.21 0.00 86 1010.4
20260906083652 72 324 0.0 0.0 0.00 0.21 0.00 86 1010.4
20260906083146 72 340 0.0 0.0 0.00 0.21 0.00 86 1010.3
20260906082639 72 340 0.0 0.0 0.00 0.21 0.00 86 1010.2
20260906082134 72 340 0.0 0.0 0.00 0.21 0.00 86 1010.3
20260906081628 72 250 0.0 0.0 0.00 0.21 0.00 85 1010.3
20260906081122 72 250 0.0 0.0 0.00 0.21 0.00 85 1010.3
20260906080616 72 250 0.0 0.0 0.00 0.21 0.00 85 1010.4
20260906080110 72 250 0.0 0.0 0.00 0.21 0.00 85 1010.4
20260906075604 72 250 0.0 0.0 0.00 0.21 0.00 85 1010.3
20260906075058 72 250 0.0 0.0 0.00 0.21 0.00 84 1010.4
20260906074551 72 250 0.0 0.0 0.00 0.21 0.00 85 1010.3
20260906074317 72 250 0.0 0.0 0.00 0.21 0.00 85 1010.3
20260906073811 72 250 0.0 0.0 0.00 0.21 0.00 85 1010.2
20260906073034 73 250 0.0 0.0 0.00 0.21 0.00 84 1010.2
20260906072527 73 250 0.0 0.0 0.00 0.21 0.00 84 1010.2
20260906072022 73 250 0.0 0.0 0.00 0.21 0.00 84 1010.1
20260906071516 73 250 0.0 0.0 0.00 0.21 0.00 84 1010.2
20260906071010 73 250 0.0 0.0 0.00 0.21 0.00 84 1010.1
20260906070504 73 250 0.0 0.0 0.00 0.21 0.00 84 1010.0
20260906065958 73 250 0.0 0.0 0.00 0.21 0.00 84 1010.1
20260906065722 73 250 0.0 0.0 0.00 0.21 0.00 84 1010.1
20260906064946 74 250 0.0 0.0 0.00 0.21 0.00 84 1010.2
20260906064439 74 250 0.0 0.0 0.00 0.21 0.00 84 1010.2
20260906064205 74 250 0.0 0.0 0.00 0.21 0.00 84 1010.2
20260906063428 74 250 0.0 0.0 0.00 0.21 0.00 84 1010.3
20260906062922 74 250 0.0 0.0 0.00 0.21 0.00 85 1010.3
20260906062416 74 250 0.0 0.0 0.00 0.21 0.00 85 1010.3
20260906061910 74 250 0.0 0.0 0.00 0.21 0.00 85 1010.3
20260906061404 74 250 0.0 0.0 0.00 0.21 0.00 85 1010.3
20260906061129 74 250 0.0 0.0 0.00 0.21 0.00 85 1010.3
20260906060352 74 250 0.0 0.0 0.00 0.21 0.00 85 1010.3
20260906060117 74 250 0.0 0.0 0.00 0.21 0.00 85 1010.4
20260906055340 74 317 0.0 0.0 0.00 0.21 0.00 85 1010.3
20260906054834 75 42 0.0 0.0 0.00 0.21 0.00 85 1010.4
20260906054328 75 63 0.0 1.0 0.00 0.21 0.00 85 1010.5
20260906054053 75 355 0.0 3.0 0.00 0.21 0.00 86 1010.5
20260906053320 75 355 0.0 3.0 0.00 0.21 0.00 86 1010.7
20260906052819 75 34 0.0 1.0 0.00 0.21 0.00 86 1010.7
20260906052318 75 19 0.0 2.0 0.00 0.21 0.00 86 1010.8
20260906051817 75 34 0.0 2.0 0.00 0.21 0.00 86 1010.7
20260906051316 75 355 0.0 1.0 0.00 0.21 0.00 87 1010.7
20260906050829 75 89 0.0 1.0 0.00 0.21 0.00 87 1010.8
20260906050544 75 92 0.0 1.0 0.00 0.21 0.00 87 1010.8
20260906045813 75 12 0.0 1.0 0.00 0.21 0.00 87 1010.8
20260906045544 75 12 0.0 0.0 0.00 0.21 0.00 87 1010.8
20260906044811 75 12 0.0 0.0 0.00 0.21 0.00 87 1010.8
20260906044312 75 12 0.0 0.0 0.00 0.21 0.00 87 1010.8
20260906043812 75 12 0.0 0.0 0.00 0.21 0.00 87 1010.8
20260906043309 75 12 0.0 1.0 0.00 0.21 0.00 87 1010.8
20260906042809 75 12 0.0 1.0 0.00 0.21 0.00 87 1010.8
20260906042310 75 12 0.0 1.0 0.00 0.21 0.00 87 1010.9
20260906041807 75 9 0.0 1.0 0.00 0.21 0.00 87 1010.9
20260906041306 75 275 0.0 0.0 0.00 0.21 0.00 87 1010.8
20260906040805 75 286 0.0 1.0 0.00 0.21 0.00 87 1010.8
20260906040301 75 338 0.0 1.0 0.00 0.21 0.00 87 1010.8
20260906035802 75 338 0.0 1.0 0.00 0.21 0.21 87 1010.9
20260906035256 75 348 0.0 1.0 0.00 0.21 0.21 87 1011.0
20260906034753 75 334 0.0 1.0 0.00 0.21 0.21 87 1011.1
20260906034253 75 334 0.0 1.0 0.00 0.21 0.21 87 1010.9
20260906033752 75 289 0.0 2.0 0.00 0.21 0.21 87 1010.8
20260906033249 74 27 0.0 4.0 0.00 0.21 0.21 87 1010.8
20260906032749 74 5 0.0 4.0 0.00 0.21 0.21 86 1010.9
20260906032250 74 308 0.0 0.0 0.00 0.21 0.21 86 1010.9
20260906031246 74 336 0.0 0.0 0.00 0.21 0.21 86 1010.9
20260906030744 74 336 0.0 0.0 0.00 0.21 0.21 86 1010.8
20260906030243 74 336 0.0 0.0 0.00 0.21 0.21 86 1010.8
20260906030015 74 336 0.0 0.0 0.00 0.21 0.21 86 1010.9
20260906025242 74 336 0.0 0.0 0.00 0.21 0.21 86 1010.9
20260906024739 74 336 0.0 0.0 0.00 0.21 0.21 86 1011.0
20260906024238 74 336 0.0 0.0 0.00 0.21 0.21 86 1011.0
20260906023737 74 336 0.0 0.0 0.00 0.21 0.21 86 1011.0
20260906023238 74 336 0.0 0.0 0.00 0.21 0.21 86 1011.1
20260906022736 74 336 0.0 0.0 0.00 0.21 0.21 86 1011.1
20260906022234 74 336 0.0 0.0 0.00 0.21 0.21 85 1011.0
20260906021734 74 336 0.0 0.0 0.00 0.21 0.21 85 1011.0
20260906021234 74 336 0.0 0.0 0.00 0.21 0.21 85 1011.0
20260906020958 74 338 0.0 0.0 0.00 0.21 0.21 85 1011.0
20260906020222 74 321 0.0 0.0 0.00 0.21 0.21 85 1011.0
20260906015819 74 321 0.0 0.0 0.00 0.22 0.21 84 1010.9
20260906014934 74 321 0.0 0.0 0.00 0.22 0.21 84 1011.1
20260906014429 74 321 0.0 0.0 0.00 0.22 0.21 84 1011.1
20260906013652 74 321 0.0 0.0 0.00 0.22 0.21 84 1011.0
20260906013146 74 321 0.0 0.0 0.00 0.22 0.21 84 1010.9
20260906012640 74 321 0.0 0.0 0.00 0.22 0.21 84 1010.8
20260906012134 74 321 0.0 0.0 0.00 0.23 0.21 84 1010.8
20260906011627 74 321 0.0 0.0 0.00 0.23 0.21 84 1010.8
20260906011122 75 321 0.0 0.0 0.00 0.23 0.21 84 1010.7
20260906010847 75 321 0.0 0.0 0.00 0.23 0.21 84 1010.6
20260906010110 75 321 0.0 0.0 0.00 0.23 0.21 84 1010.7
20260906005604 75 321 0.0 0.0 0.00 0.23 0.21 84 1010.7
20260906005057 75 321 0.0 0.0 0.00 0.23 0.21 84 1010.6
20260906004552 75 321 0.0 0.0 0.00 0.24 0.21 84 1010.5
20260906004046 75 321 0.0 0.0 0.00 0.24 0.21 83 1010.4
20260906003812 75 321 0.0 0.0 0.00 0.24 0.21 83 1010.3
20260906003034 75 321 0.0 0.0 0.00 0.24 0.21 83 1010.2
20260906002528 75 321 0.0 0.0 0.00 0.24 0.21 83 1010.1
20260906002022 76 321 0.0 0.0 0.00 0.24 0.21 83 1009.8
20260906001529 76 321 0.0 0.0 0.00 0.24 0.21 83 1009.8
20260906001010 76 321 0.0 0.0 0.00 0.24 0.21 83 1009.8
20260906000503 76 321 0.0 0.0 0.00 0.24 0.21 83 1009.7
20260905235958 76 321 0.0 0.0 0.00 0.24 0.21 82 1009.6
20260905235452 76 321 0.0 0.0 0.00 0.24 0.21 82 1009.6
20260905234946 76 321 0.0 0.0 0.00 0.24 0.21 82 1009.6
20260905234439 76 321 0.0 0.0 0.00 0.24 0.21 82 1009.6
20260905233934 76 321 0.0 0.0 0.00 0.24 0.21 82 1009.6
20260905233428 77 321 0.0 0.0 0.00 0.24 0.21 82 1009.7
20260905232922 77 321 0.0 0.0 0.00 0.24 0.21 82 1009.8
20260905232416 77 321 0.0 0.0 0.00 0.24 0.21 82 1010.0
20260905231910 77 318 0.0 0.0 0.00 0.24 0.21 82 1010.0
20260905231404 77 336 0.0 0.0 0.00 0.24 0.21 82 1010.0
20260905230857 77 338 0.0 0.0 0.00 0.24 0.21 82 1010.0
20260905230351 77 338 0.0 3.0 0.00 0.24 0.21 82 1010.0
20260905225845 78 338 1.0 3.0 0.00 0.24 0.21 82 1009.8
20260905225340 78 5 0.0 2.0 0.00 0.24 0.21 83 1009.8
20260905224834 78 348 1.0 3.0 0.00 0.24 0.21 83 1009.7
20260905224328 78 343 1.0 3.0 0.00 0.24 0.21 83 1009.7
20260905223822 78 341 2.0 5.0 0.00 0.24 0.21 83 1009.7
20260905223316 78 329 2.0 5.0 0.00 0.24 0.21 84 1009.6
20260905222809 78 344 1.0 4.0 0.00 0.24 0.21 84 1009.5
20260905222306 78 338 1.0 3.0 0.00 0.24 0.21 84 1009.6
20260905221758 78 5 1.0 3.0 0.00 0.24 0.21 84 1009.6
20260905221252 78 323 1.0 2.0 0.00 0.24 0.21 85 1009.7
20260905220746 78 327 1.0 4.0 0.00 0.24 0.21 84 1009.7
20260905220240 78 346 1.0 4.0 0.00 0.24 0.21 84 1009.7
20260905215734 78 338 1.0 3.0 0.00 0.24 0.21 85 1009.7
20260905215228 78 57 1.0 4.0 0.00 0.24 0.21 85 1009.8
20260905214722 78 333 2.0 4.0 0.00 0.24 0.21 85 1009.8
20260905214216 79 355 2.0 4.0 0.00 0.24 0.21 85 1009.7
20260905213940 78 317 2.0 3.0 0.00 0.24 0.21 85 1009.6
20260905213204 78 341 2.0 5.0 0.00 0.24 0.21 85 1009.6
20260905212657 78 333 1.0 5.0 0.00 0.24 0.21 85 1009.5
20260905212152 78 339 1.0 4.0 0.00 0.24 0.21 85 1009.6
20260905211917 78 355 1.0 4.0 0.00 0.24 0.21 84 1009.5
20260905211140 78 325 1.0 3.0 0.00 0.24 0.21 85 1009.5
20260905210634 79 323 1.0 3.0 0.00 0.24 0.21 84 1009.6
20260905210128 79 0 1.0 4.0 0.00 0.24 0.21 84 1009.7
20260905205622 79 345 0.0 4.0 0.00 0.24 0.21 85 1009.6
20260905205116 79 350 1.0 3.0 0.00 0.24 0.21 85 1009.5
20260905204609 79 350 1.0 3.0 0.00 0.24 0.21 84 1009.4
20260905204104 79 103 0.0 3.0 0.00 0.24 0.21 85 1009.2
20260905203558 79 25 1.0 3.0 0.00 0.24 0.21 86 1009.2
20260905203052 78 45 1.0 3.0 0.00 0.24 0.21 85 1009.4
20260905202546 78 5 0.0 0.0 0.00 0.24 0.21 85 1009.4
20260905202040 78 30 0.0 0.0 0.01 0.24 0.21 86 1009.6
20260905201534 78 30 0.0 0.0 0.02 0.24 0.21 86 1009.4
20260905201027 78 30 0.0 0.0 0.02 0.24 0.21 86 1009.5
20260905200535 78 169 0.0 2.0 0.02 0.24 0.21 86 1009.4
20260905200029 78 161 1.0 4.0 0.02 0.24 0.21 86 1009.4
20260905195509 78 334 2.0 4.0 0.02 0.24 0.21 86 1009.6
20260905195004 78 300 1.0 4.0 0.02 0.24 0.21 87 1009.7
20260905194458 78 304 0.0 3.0 0.03 0.24 0.21 88 1009.8
20260905193952 77 320 0.0 2.0 0.11 0.24 0.21 87 1009.8
20260905193446 77 175 0.0 2.0 0.19 0.24 0.21 88 1010.0
20260905192940 76 153 0.0 2.0 0.21 0.24 0.21 89 1010.2
20260905192434 76 311 0.0 2.0 0.21 0.24 0.21 88 1010.2
20260905192159 76 311 0.0 2.0 0.20 0.23 0.20 88 1010.4
20260905191653 76 49 0.0 2.0 0.19 0.22 0.19 88 1010.5
20260905190916 75 198 0.0 0.0 0.19 0.22 0.19 88 1010.5
20260905190641 75 192 0.0 0.0 0.19 0.22 0.19 88 1010.5
20260905185904 76 73 0.0 3.0 0.19 0.22 0.19 88 1010.4
20260905185357 75 51 0.0 3.0 0.19 0.22 0.19 88 1010.3
20260905184852 75 39 1.0 4.0 0.19 0.22 0.19 86 1010.3
20260905184345 75 42 4.0 12.0 0.15 0.18 0.16 83 1010.6